Location: Stockholm
(59.3333°N, 18.0500°E)
Time: 13:39:45
(UTC+02:00)

ISS - Pass Details

Date: 15 May 2021
Orbit: 417 x 422 km, 51.6° (Epoch: 14 May)

Event Time Altitude Azimuth Distance (km) Brightness Sun altitude
Rises 00:27:30 0° 241° (WSW) 2,364 -0.2 -11.7°
Reaches altitude 10° 00:29:53 10° 225° (SW) 1,502 -1.3 -11.8°
Maximum altitude 00:32:32 22° 173° (S) 988 -2.5 -11.8°
Drops below altitude 10° 00:35:11 10° 122° (ESE) 1,505 -1.3 -11.8°
Sets 00:37:35 0° 106° (ESE) 2,371 -0.1 -11.8°
